15min,AgWx,beryljct,423,07APR2019:00:00:00,34.7,12.86,30.8,30.2,30.9,31.7,30.0,73,78,71,0.443,23.4,24.2,22.7,4.121,2.4,141,6.3,7.1,-0.00003,-0.00002,.,49.9,25,0,0,35.7,13.00,0.01,0.00
15min,AgWx,beryljct,423,07APR2019:00:15:00,34.2,12.87,32.3,32.3,31.4,32.3,30.2,71,78,64,0.398,23.1,24.4,21.6,1.425,3.4,197,18,4.9,0.00001,0.00003,.,49.9,25,0,0,35.5,13.00,0.00,0.00
15min,AgWx,beryljct,423,07APR2019:00:30:00,33.8,12.85,29.4,29.7,31.4,32.2,29.7,68,71,64,0.396,22.1,22.8,21.5,1.447,2.4,168,15,4.7,-0.00001,-0.00000,.,49.8,25,0,0,35.4,13.00,0.00,0.00
15min,AgWx,beryljct,423,07APR2019:00:45:00,33.2,12.85,30.3,29.5,30.5,31.9,29.5,71,74,67,0.405,22.3,23.2,21.3,0,1.0,139,0.6,2.9,-0.00008,-0.00010,.,49.8,25,0,0,35.6,13.00,0.00,0.00
15min,AgWx,beryljct,423,07APR2019:01:00:00,32.6,12.83,28.9,27.8,29.0,30.2,27.6,76,81,73,0.417,22.3,22.8,21.9,0.395,2.3,117,20,6.3,-0.00003,-0.00003,.,49.7,25,0,0,35.7,13.00,0.00,0.00
15min,AgWx,beryljct,423,07APR2019:01:15:00,32.0,12.82,30.7,29.8,28.8,29.9,27.6,76,81,72,0.411,22.2,23.0,21.5,2.981,1.7,262,42,3.3,-0.00006,-0.00007,.,49.6,26,0,0,35.5,13.00,0.00,0.00
15min,AgWx,beryljct,423,07APR2019:01:30:00,31.6,12.82,30.7,29.8,29.7,30.5,28.5,71,74,68,0.389,21.4,22.4,20.4,3.617,3.3,314,4.8,3.8,0.00001,0.00003,.,49.6,25,0,0,35.5,13.00,0.00,0.00
15min,AgWx,beryljct,423,07APR2019:01:45:00,31.4,12.8,28.7,27.9,28.9,29.9,27.6,70,74,68,0.380,20.4,21.4,19.5,0,2.3,329,2.0,4.8,-0.00002,-0.00001,.,49.5,25,0,0,36.0,13.00,0.00,0.00
15min,AgWx,beryljct,423,07APR2019:02:00:00,30.8,12.65,27.1,26.4,27.3,28.5,26.2,76,84,72,0.407,20.8,22.9,19.8,2.631,1.7,114,44,4.9,-0.00005,-0.00006,.,49.5,25,0,0,35.5,13.00,0.00,0.00
15min,AgWx,beryljct,423,07APR2019:02:15:00,30.2,12.78,27.1,26.5,26.5,27.3,25.7,82,84,80,0.401,21.7,22.7,20.7,3.858,3.1,113,35,5.1,-0.00002,-0.00002,.,49.4,25,0,0,35.6,13.00,0.00,0.00
15min,AgWx,beryljct,423,07APR2019:02:30:00,29.8,12.78,28.6,28.5,27.5,28.6,26.3,82,84,79,0.419,22.8,23.5,21.7,3.727,3.3,171,13,4.3,-0.00002,-0.00002,.,49.3,25,0,0,35.7,13.00,0.00,0.00
15min,AgWx,beryljct,423,07APR2019:02:45:00,29.5,12.78,28.1,27.9,27.9,28.5,26.9,77,79,74,0.386,21.7,22.7,20.7,4.187,3.6,176,4.3,5.4,-0.00000,0.00001,.,49.2,25,0,0,35.5,13.00,0.00,0.00
15min,AgWx,beryljct,423,07APR2019:03:00:00,29.4,12.76,29.7,28.5,28.9,29.7,27.9,73,75,71,0.389,21.3,22.2,20.5,2.674,2.4,175,27,4.5,-0.00002,-0.00002,.,49.2,25,0,0,35.8,13.00,0.00,0.00
15min,AgWx,beryljct,423,07APR2019:03:15:00,29.4,12.77,34.5,31.6,28.8,31.6,27.4,73,76,68,0.406,21.4,22.2,20.2,2.368,2.8,302,51,4.5,-0.00001,-0.00000,.,49.1,25,0,0,35.7,13.00,0.00,0.00
15min,AgWx,beryljct,423,07APR2019:03:30:00,29.3,12.76,27.4,26.1,27.4,33.7,25.4,72,79,59,0.372,19.6,22.4,17.1,2.302,3.2,311,11,5.7,0.00001,0.00002,.,49.0,25,0,0,35.6,13.00,0.00,0.00
15min,AgWx,beryljct,423,07APR2019:03:45:00,28.7,12.75,24.1,23.4,24.7,26.5,23.4,80,84,76,0.360,19.4,20.5,18.7,2.192,2.0,87,63,3.3,-0.00005,-0.00005,.,49.0,25,0,0,35.4,13.00,0.00,0.00
15min,AgWx,beryljct,423,07APR2019:04:00:00,28.0,12.75,24.8,24.4,24.4,25.0,23.4,84,86,83,0.372,20.4,20.9,19.3,2.28,2.1,146,16,3.4,-0.00005,-0.00006,.,48.9,25,0,0,35.5,13.01,0.00,0.00
15min,AgWx,beryljct,423,07APR2019:04:15:00,27.5,12.74,27.4,27.9,25.6,28.0,24.1,81,83,75,0.388,20.6,22.2,19.4,2.718,1.0,190,29,2.9,-0.00008,-0.00011,.,48.8,25,0,0,35.5,13.01,0.00,0.00
15min,AgWx,beryljct,423,07APR2019:04:30:00,27.3,12.6,29.3,27.5,25.3,27.7,23.9,78,81,74,0.383,19.4,20.9,18.4,3.814,3.4,328,17,4.6,-0.00001,-0.00000,.,48.7,25,0,0,35.7,13.01,0.00,0.00
15min,AgWx,beryljct,423,07APR2019:04:45:00,27.3,12.71,24.3,23.6,24.8,27.8,23.4,78,83,72,0.358,19.0,20.8,18.3,1.491,3.6,39,11,5.8,-0.00000,0.00001,.,48.7,25,0,0,35.6,13.01,0.00,0.00
15min,AgWx,beryljct,423,07APR2019:05:00:00,27.0,12.72,24.7,23.6,23.6,24.2,23.1,82,84,80,0.363,18.9,19.7,18.3,1.666,2.0,86,56,3.1,-0.00005,-0.00006,.,48.6,25,0,0,35.5,13.01,0.00,0.00
15min,AgWx,beryljct,423,07APR2019:05:15:00,26.5,12.71,25.3,24.7,24.5,25.1,23.6,82,84,79,0.360,19.8,20.4,19.3,3.091,2.0,159,0.5,3.1,-0.00005,-0.00006,.,48.5,25,0,0,35.5,13.01,0.00,0.00
15min,AgWx,beryljct,423,07APR2019:05:30:00,26.4,12.71,25.4,24.9,24.7,25.1,24.4,82,85,80,0.384,20.1,21.1,19.3,4.779,4.1,174,6.3,5.0,0.00009,0.00016,.,48.4,25,0,0,35.5,13.01,0.00,0.00
15min,AgWx,beryljct,423,07APR2019:05:45:00,26.4,12.71,23.9,25.2,25.3,25.9,24.8,83,84,79,0.367,20.7,21.4,19.7,0.395,4.0,183,2.3,5.6,0.00009,0.00016,.,48.3,25,0,0,35.6,13.00,0.00,0.00
15min,AgWx,beryljct,423,07APR2019:06:00:00,26.4,12.71,27.4,26.4,25.5,26.5,24.7,80,82,78,0.381,20.3,21.0,19.2,1.359,1.7,185,0.1,2.9,0.00005,0.00009,.,48.2,25,1,0,35.7,13.01,0.00,0.00
15min,AgWx,beryljct,423,07APR2019:06:15:00,26.4,12.72,29.7,28.4,28.1,29.1,26.4,74,79,70,0.392,20.9,22.7,19.2,0.022,0.6,185,0.1,1.8,0.00005,0.00007,.,48.1,25,4,0,35.8,13.01,0.00,0.00
15min,AgWx,beryljct,423,07APR2019:06:30:00,26.6,12.74,27.8,27.4,28.1,29.5,27.4,74,76,71,0.379,20.9,21.9,20.3,2.389,1.3,185,0.1,2.4,0.00015,0.00020,.,48.1,25,26,0,35.8,13.01,0.00,0.00
15min,AgWx,beryljct,423,07APR2019:06:45:00,27.4,12.79,28.3,28.2,28.1,28.8,27.4,74,75,71,0.383,20.7,21.2,20.3,1.337,2.3,343,24,2.9,0.00033,0.00042,.,48.0,25,73,0,37.6,13.01,0.00,0.00
15min,AgWx,beryljct,423,07APR2019:07:00:00,28.7,12.77,28.5,27.9,27.8,28.2,27.6,79,84,73,0.435,22.1,23.8,20.7,1.951,1.5,63,63,3.5,0.00040,0.00046,.,47.9,25,108,0,43.8,13.00,0.00,0.00
15min,AgWx,beryljct,423,07APR2019:07:15:00,30.3,12.81,31.1,30.2,29.2,30.2,27.9,83,85,81,0.465,24.6,25.4,23.8,1.556,3.4,141,14,5.2,0.00057,0.00066,.,47.8,25,165,0,46.5,13.00,0.00,0.00
15min,AgWx,beryljct,423,07APR2019:07:30:00,32.3,12.93,33.8,33.4,32.3,33.5,30.3,76,82,71,0.493,25.7,26.8,24.9,0,0.9,154,0.1,2.2,0.00074,0.00082,.,47.7,25,196,0,53.9,13.00,0.00,0.00
15min,AgWx,beryljct,423,07APR2019:07:45:00,34.8,13.04,36.5,36.1,34.8,36.1,33.3,73,77,70,0.511,27.1,27.8,26.3,1.228,0.9,142,0.0,1.8,0.00093,0.00102,.,47.6,25,231,0,59.3,13.00,0.00,0.00
15min,AgWx,beryljct,423,07APR2019:08:00:00,37.3,13.31,38.4,38.0,37.0,38.1,36.0,65,71,61,0.474,26.3,27.5,25.4,1.513,1.1,94,53,2.5,0.00117,0.00129,.,47.5,25,276,0,61.3,13.00,0.00,0.00
15min,AgWx,beryljct,423,07APR2019:08:15:00,39.9,13.68,39.9,39.9,39.0,40.0,38.0,59,62,56,0.468,25.7,26.8,25.0,1.184,1.5,23,7.0,2.8,0.00150,0.00168,.,47.4,25,341,0,64.7,13.00,0.00,0.00
15min,AgWx,beryljct,423,07APR2019:08:30:00,42.7,14.58,42.9,42.5,41.1,42.5,39.8,54,58,53,0.505,25.9,27.4,24.9,0.899,0.5,26,11,2.3,0.00170,0.00185,.,47.4,25,373,0,70.9,13.00,0.00,0.00
15min,AgWx,beryljct,423,07APR2019:08:45:00,45.6,14.53,43.4,43.8,42.9,44.0,41.9,54,57,51,0.517,27.4,29.4,26.3,1.403,1.2,99,11,2.8,0.00204,0.00225,.,47.3,25,434,0,75.8,12.99,0.00,0.00
15min,AgWx,beryljct,423,07APR2019:09:00:00,48.2,14.43,46.4,45.4,44.7,45.9,43.6,52,55,49,0.533,28.0,29.4,26.7,2.521,1.6,107,26,3.5,0.00246,0.00274,.,47.2,25,512,0,79.5,12.99,0.00,0.00
15min,AgWx,beryljct,423,07APR2019:09:15:00,51.0,14.43,47.5,48.0,46.6,48.1,45.4,50,53,46,0.586,28.8,31.4,27.1,2.696,1.3,118,34,3.1,0.00278,0.00307,.,47.1,25,562,0,84.2,12.99,0.00,0.00
15min,AgWx,beryljct,423,07APR2019:09:30:00,53.4,14.45,48.7,49.0,48.3,49.8,47.1,47,50,44,0.551,28.8,30.4,27.6,2.411,1.3,121,23,3.5,0.00303,0.00335,.,47.1,25,594,0,85.4,12.99,0.00,0.00
15min,AgWx,beryljct,423,07APR2019:09:45:00,55.6,14.4,50.3,50.4,49.6,50.4,48.7,46,48,44,0.553,29.6,31.7,28.2,0.548,1.3,125,17,3.8,0.00341,0.00376,.,47.0,25,658,0,89.7,12.99,0.00,0.00
15min,AgWx,beryljct,423,07APR2019:10:00:00,57.7,14.3,51.7,52.2,52.0,53.1,50.4,44,47,40,0.595,30.7,32.6,28.9,1.82,1.0,101,40,2.4,0.00358,0.00391,.,46.9,25,665,0,91.4,12.98,0.00,0.00
15min,AgWx,beryljct,423,07APR2019:10:15:00,59.7,14.28,54.0,54.8,53.7,55.3,52.1,42,47,38,0.605,31.0,34.1,29.5,2.696,1.0,120,40,4.3,0.00374,0.00410,.,46.9,25,678,0,93.7,12.97,0.00,0.00
15min,AgWx,beryljct,423,07APR2019:10:30:00,61.5,14.33,57.2,56.8,55.7,56.8,54.5,42,47,38,0.714,32.7,36.4,29.3,3.179,2.7,122,21,4.9,0.00456,0.00514,.,46.9,25,812,0,95.0,12.97,0.00,0.00
15min,AgWx,beryljct,423,07APR2019:10:45:00,62.4,14.21,60.8,58.7,57.0,58.7,56.5,40,48,35,0.801,33.0,38.8,30.0,3.376,3.6,97,15,5.9,0.00409,0.00474,.,46.8,25,692,0,86.2,12.97,0.00,0.00
15min,AgWx,beryljct,423,07APR2019:11:00:00,63.3,13.76,59.6,59.3,58.6,59.3,58.1,39,48,35,0.705,33.9,39.3,30.5,2.784,3.1,90,21,5.4,0.00441,0.00504,.,46.8,25,734,0,89.5,12.97,0.00,0.00
15min,AgWx,beryljct,423,07APR2019:11:15:00,64.2,13.8,59.3,59.6,59.3,60.3,58.7,36,42,32,0.560,32.6,36.7,29.8,2.543,3.0,91,30,7.2,0.00475,0.00541,.,46.8,25,793,0,90.9,12.96,0.00,0.00
15min,AgWx,beryljct,423,07APR2019:11:30:00,65.5,13.77,61.0,61.1,60.7,61.7,59.5,34,44,30,0.642,31.9,39.7,29.1,2.631,2.5,120,31,5.6,0.00530,0.00597,.,46.8,25,885,0,97.0,12.96,0.00,0.00
15min,AgWx,beryljct,423,07APR2019:11:45:00,66.6,13.76,63.3,63.4,61.8,63.4,61.1,32,39,29,0.571,31.6,36.2,29.3,5.305,3.2,111,43,6.6,0.00544,0.00622,.,46.8,25,891,0,95.0,12.96,0.00,0.00
15min,AgWx,beryljct,423,07APR2019:12:00:00,67.7,13.73,63.2,64.5,64.3,65.1,63.4,30,38,26,0.589,32.1,38.0,29.0,0.921,4.3,200,47,10.5,0.00579,0.00675,.,46.9,25,914,0,92.8,12.96,0.00,0.00
15min,AgWx,beryljct,423,07APR2019:12:15:00,68.8,13.84,66.2,65.3,65.0,66.0,63.4,29,36,26,0.646,31.9,36.7,29.3,8.86,4.9,295,73,12.5,0.00589,0.00693,.,46.9,25,921,0,94.4,12.96,0.00,0.00
15min,AgWx,beryljct,423,07APR2019:12:30:00,69.3,13.73,66.4,64.8,65.3,66.7,64.6,30,35,26,0.726,32.8,38.1,29.3,3.332,5.7,196,59,12.6,0.00597,0.00712,.,47.0,25,923,0,88.9,12.95,0.00,0.00
15min,AgWx,beryljct,423,07APR2019:12:45:00,69.6,13.7,68.2,66.0,66.2,67.2,64.9,28,37,23,0.532,31.9,38.6,27.7,0.943,5.4,234,43,13.6,0.00607,0.00721,.,47.1,25,928,0,89.5,12.95,0.00,0.00
15min,AgWx,beryljct,423,07APR2019:13:00:00,70.2,13.66,69.8,67.6,67.3,68.4,66.2,27,32,24,0.654,32.1,37.6,28.2,8.29,6.1,243,46,12.6,0.00616,0.00742,.,47.2,25,923,0,91.0,12.95,0.00,0.00
15min,AgWx,beryljct,423,07APR2019:13:15:00,71.0,13.65,67.8,67.6,67.3,68.4,66.6,25,31,23,0.613,30.5,36.8,27.5,5.678,4.4,265,56,9.2,0.00603,0.00709,.,47.3,25,917,0,90.3,12.95,0.00,0.00
15min,AgWx,beryljct,423,07APR2019:13:30:00,71.7,13.61,68.0,68.3,67.8,68.4,67.1,25,30,22,0.623,30.9,35.3,27.7,6.401,7.8,273,38,15.5,0.00622,0.00770,.,47.4,25,906,0,86.1,12.95,0.00,0.00
15min,AgWx,beryljct,423,07APR2019:13:45:00,72.3,13.63,67.5,67.8,68.3,69.0,67.7,25,29,23,0.533,31.5,35.3,28.6,5.415,9.1,251,23,15.0,0.00626,0.00791,.,47.5,25,892,0,84.0,12.95,0.00,0.00
15min,AgWx,beryljct,423,07APR2019:14:00:00,72.6,13.58,68.5,68.2,68.3,69.2,67.6,25,29,21,0.505,30.8,34.5,27.0,3.157,7.4,246,27,16.8,0.00607,0.00753,.,47.7,25,876,0,84.4,12.95,0.00,0.00
15min,AgWx,beryljct,423,07APR2019:14:15:00,73.2,13.7,69.2,69.2,68.4,69.4,67.7,23,26,21,0.563,29.1,32.9,26.9,7.3,4.5,289,44,10.8,0.00538,0.00644,.,47.8,25,801,0,87.5,12.95,0.00,0.00
15min,AgWx,beryljct,423,07APR2019:14:30:00,73.8,13.62,70.3,69.9,68.9,69.9,68.1,22,26,19,0.564,28.1,32.7,24.5,11.55,7.4,276,39,14.8,0.00583,0.00730,.,48.0,25,825,0,83.6,12.95,0.00,0.00
15min,AgWx,beryljct,423,07APR2019:14:45:00,74.1,13.6,69.8,69.1,69.0,69.9,68.7,21,25,18,0.479,27.6,31.8,23.5,5.174,8.8,278,21,15.7,0.00583,0.00750,.,48.1,25,799,0,81.0,12.95,0.00,0.00
15min,AgWx,beryljct,423,07APR2019:15:00:00,74.1,13.56,68.9,69.8,69.4,70.6,68.9,20,24,17,0.534,26.8,31.7,23.0,13.2,9.6,270,17,17.0,0.00546,0.00721,.,48.3,25,715,0,80.1,12.95,0.00,0.00
15min,AgWx,beryljct,423,07APR2019:15:15:00,74.1,13.64,70.3,69.5,69.8,70.2,69.4,21,25,17,0.511,27.9,32.9,23.0,11,10.3,253,16,15.9,0.00557,0.00742,.,48.5,25,722,0,78.4,12.95,0.00,0.00
15min,AgWx,beryljct,423,07APR2019:15:30:00,73.9,13.58,68.5,69.5,69.9,70.2,69.5,20,24,18,0.445,27.5,32.0,24.3,8.2,12.8,279,15,17.5,0.00568,0.00781,.,48.6,25,695,0,76.8,12.95,0.00,0.00
15min,AgWx,beryljct,423,07APR2019:15:45:00,74.0,13.58,69.9,70.2,69.8,70.7,69.3,21,24,18,0.529,27.6,32.2,24.0,9.25,9.3,290,24,17.3,0.00503,0.00672,.,48.8,25,644,0,77.6,12.95,0.00,0.00
15min,AgWx,beryljct,423,07APR2019:16:00:00,74.2,13.56,70.1,70.3,69.7,70.3,69.2,21,23,18,0.582,27.5,30.8,23.9,12.76,9.0,292,18,16.9,0.00473,0.00636,.,49.0,25,601,0,76.8,12.96,0.00,0.00
15min,AgWx,beryljct,423,07APR2019:16:15:00,74.2,13.57,69.0,69.4,69.6,70.3,69.3,22,24,19,0.499,28.6,31.7,25.5,6.686,9.5,268,13,14.5,0.00458,0.00627,.,49.1,25,566,0,75.3,12.95,0.00,0.00
15min,AgWx,beryljct,423,07APR2019:16:30:00,73.9,13.61,69.2,68.9,69.4,69.9,68.9,24,27,20,0.542,30.6,33.9,26.0,9.08,10.8,254,11,14.4,0.00437,0.00613,.,49.2,25,515,0,73.7,12.96,0.01,0.00
15min,AgWx,beryljct,423,07APR2019:16:45:00,73.5,13.56,69.3,69.0,69.3,69.6,68.7,23,26,21,0.568,29.7,32.8,27.4,12.69,11.2,255,15,17.7,0.00412,0.00592,.,49.4,25,463,0,72.6,12.96,0.00,0.00
15min,AgWx,beryljct,423,07APR2019:17:00:00,72.7,13.63,68.2,68.3,68.6,69.3,68.3,23,26,21,0.535,29.4,32.4,26.6,10.9,12.4,255,13,18.8,0.00376,0.00565,.,49.5,25,380,0,70.6,12.96,0.00,0.00
15min,AgWx,beryljct,423,07APR2019:17:15:00,71.8,13.61,68.5,68.3,68.1,68.3,67.8,23,26,20,0.489,28.8,31.5,26.0,8.53,10.1,248,24,17.0,0.00306,0.00465,.,49.6,25,309,0,69.4,12.96,0.00,0.00
15min,AgWx,beryljct,423,07APR2019:17:30:00,71.1,13.64,67.5,67.4,68.0,68.5,67.3,23,26,21,0.527,28.9,31.1,27.1,9.82,12.4,269,9.5,18.5,0.00312,0.00495,.,49.8,25,267,0,69.2,12.96,0.00,0.00
15min,AgWx,beryljct,423,07APR2019:17:45:00,69.8,13.26,65.0,65.1,66.3,67.6,65.1,24,26,22,0.530,28.5,30.6,26.1,10.35,11.8,262,6.8,17.0,0.00221,0.00386,.,49.9,25,127,0,66.7,12.96,0.00,0.00
15min,AgWx,beryljct,423,07APR2019:18:00:00,67.9,13.24,64.2,63.7,64.6,65.2,63.7,25,26,23,0.512,28.0,28.9,26.6,11.99,10.9,257,6.2,14.5,0.00168,0.00315,.,50.0,25,70,0,64.5,12.96,0.00,0.00
15min,AgWx,beryljct,423,07APR2019:18:15:00,66.1,13.19,63.9,63.9,63.6,63.9,63.2,26,27,24,0.499,27.7,28.8,26.7,10.33,10.3,262,7.2,13.5,0.00097,0.00122,.,50.1,25,59,0,63.4,12.97,0.00,0.00
15min,AgWx,beryljct,423,07APR2019:18:30:00,64.9,13.16,63.9,63.2,63.4,63.9,63.0,26,27,24,0.491,27.6,28.9,26.4,11.68,10.3,266,6.7,13.6,0.00095,0.00119,.,50.3,25,51,0,63.2,12.96,0.00,0.00
15min,AgWx,beryljct,423,07APR2019:18:45:00,64.0,13.14,63.0,62.3,62.8,63.7,61.9,26,28,23,0.488,27.1,28.4,25.0,10.87,9.2,265,7.1,14.4,0.00085,0.00110,.,50.4,25,41,0,62.0,12.96,0.00,0.00
15min,AgWx,beryljct,423,07APR2019:19:00:00,62.6,13.11,59.5,59.8,60.7,62.3,59.8,28,29,25,0.507,27.7,28.3,26.5,7.804,7.7,260,4.3,10.0,0.00064,0.00085,.,50.5,25,14,0,59.2,12.97,0.01,0.00
15min,AgWx,beryljct,423,07APR2019:19:15:00,60.9,13.09,58.2,58.5,58.7,59.8,57.7,30,32,29,0.492,27.6,28.5,26.7,6.796,6.7,246,7.8,7.9,0.00050,0.00068,.,50.6,25,2,0,56.7,12.97,0.00,0.00
15min,AgWx,beryljct,423,07APR2019:19:30:00,59.3,13.08,57.4,57.6,58.4,58.9,57.6,30,32,29,0.514,27.2,28.1,26.5,5.568,6.6,224,4.8,8.1,0.00049,0.00067,.,50.7,25,0,0,56.3,12.97,0.00,0.00
15min,AgWx,beryljct,423,07APR2019:19:45:00,58.3,13.06,58.0,58.2,58.1,58.9,57.5,31,32,29,0.501,27.3,28.2,26.5,6.007,6.4,227,4.0,8.2,0.00047,0.00064,.,50.8,25,0,0,56.5,12.97,0.00,0.00
15min,AgWx,beryljct,423,07APR2019:20:00:00,57.5,13.05,57.3,56.9,57.9,59.3,56.6,31,34,28,0.520,27.7,28.6,26.2,7.497,6.6,241,4.9,8.2,0.00047,0.00065,.,50.8,25,0,0,56.1,12.97,0.00,0.00
15min,AgWx,beryljct,423,07APR2019:20:15:00,56.7,13.05,56.7,56.0,56.2,57.0,55.3,35,37,33,0.547,28.9,29.8,28.1,7.081,7.1,251,4.0,8.0,0.00046,0.00061,.,50.9,25,0,0,54.5,12.97,0.00,0.00
15min,AgWx,beryljct,423,07APR2019:20:30:00,56.0,13.05,52.8,53.9,55.6,56.6,53.9,37,40,34,0.573,29.5,30.4,28.7,0.745,6.1,250,5.4,7.8,0.00037,0.00052,.,50.9,25,0,0,53.9,12.97,0.00,0.00
15min,AgWx,beryljct,423,07APR2019:20:45:00,54.5,13.03,53.7,51.9,50.3,53.8,48.1,47,54,41,0.560,30.9,32.1,29.9,6.138,5.0,144,17,8.8,0.00018,0.00027,.,51.0,25,0,0,48.9,12.98,0.01,0.00
15min,AgWx,beryljct,423,07APR2019:21:00:00,53.2,13.01,48.3,50.6,51.2,52.9,48.5,44,52,39,0.568,30.0,31.6,28.7,3.003,4.3,192,19,6.4,0.00016,0.00025,.,51.0,25,0,0,49.0,12.98,0.00,0.00
15min,AgWx,beryljct,423,07APR2019:21:15:00,52.4,13.02,49.8,51.4,53.0,55.0,49.1,41,49,37,0.579,29.7,31.0,28.9,4.472,4.9,208,13,6.3,0.00024,0.00035,.,51.1,25,0,0,50.3,12.98,0.00,0.00
15min,AgWx,beryljct,423,07APR2019:21:30:00,51.4,13.01,47.3,49.9,48.9,51.6,46.1,50,56,43,0.568,31.0,32.0,29.9,3.573,3.1,208,20,7.0,0.00003,0.00008,.,51.1,25,0,0,47.2,12.98,0.00,0.00
15min,AgWx,beryljct,423,07APR2019:21:45:00,50.1,13,45.0,44.4,46.4,49.5,44.4,54,58,47,0.573,30.6,31.8,29.7,6.138,5.0,177,21,6.9,0.00013,0.00019,.,51.1,25,0,0,45.3,12.98,0.00,0.00
15min,AgWx,beryljct,423,07APR2019:22:00:00,48.9,12.99,50.1,49.7,46.1,49.8,44.4,54,58,47,0.568,30.6,31.6,30.1,3.551,4.8,219,11,7.3,0.00011,0.00017,.,51.1,25,0,0,44.6,12.98,0.00,0.00
15min,AgWx,beryljct,423,07APR2019:22:15:00,48.2,12.98,48.7,48.5,48.1,49.7,46.5,52,56,47,0.597,31.2,31.9,30.3,5.502,3.9,243,8.2,5.9,0.00008,0.00014,.,51.1,25,0,0,46.4,12.99,0.00,0.00
15min,AgWx,beryljct,423,07APR2019:22:30:00,48.0,12.98,45.3,45.1,47.1,49.7,43.7,54,61,48,0.568,31.2,32.2,30.0,1.688,4.0,201,51,6.6,0.00008,0.00013,.,51.1,25,0,0,46.1,12.99,0.00,0.00
15min,AgWx,beryljct,423,07APR2019:22:45:00,47.2,12.96,45.1,44.1,43.5,46.7,41.5,61,67,53,0.569,30.8,31.7,29.8,0.68,1.3,187,22,4.0,-0.00016,-0.00020,.,51.1,25,0,0,42.0,12.99,0.00,0.00
15min,AgWx,beryljct,423,07APR2019:23:00:00,46.7,12.95,53.3,52.7,49.4,52.7,43.9,47,59,42,0.568,30.0,30.7,29.5,1.25,1.3,279,12,2.8,-0.00015,-0.00019,.,51.1,25,0,0,44.5,12.99,0.00,0.00
15min,AgWx,beryljct,423,07APR2019:23:15:00,47.1,12.96,46.7,45.5,50.4,52.8,45.5,46,58,42,0.600,30.6,31.6,30.1,1.841,0.8,288,54,5.3,-0.00022,-0.00031,.,51.1,25,0,0,47.0,12.99,0.00,0.00
15min,AgWx,beryljct,423,07APR2019:23:30:00,46.8,12.95,48.9,45.8,44.7,48.4,41.7,61,70,51,0.620,32.0,33.2,31.1,3.99,1.4,93,39,4.0,-0.00016,-0.00020,.,51.1,25,0,0,43.4,12.99,0.00,0.00
15min,AgWx,bigpiney,439,07APR2019:00:00:00,29.1,12.67,26.3,27.2,27.8,28.7,26.2,77,81,74,0.388,21.5,22.4,20.7,3.902,5.1,295,5.0,6.6,-0.00002,-0.00001,31.7,31.6,24,0,0,0.0,0.63,0.00,0.00
15min,AgWx,bigpiney,439,07APR2019:00:15:00,28.9,12.65,26.8,27.1,27.2,28.0,26.0,78,80,75,0.377,21.1,21.8,20.2,2.433,3.3,311,14,4.6,-0.00006,-0.00007,31.7,31.6,24,0,0,0.0,0.63,0.00,0.00
15min,AgWx,bigpiney,439,07APR2019:00:30:00,28.6,12.65,24.5,24.6,25.0,27.1,24.2,80,83,76,0.365,19.8,20.7,18.5,2.762,3.1,247,21,4.4,-0.00007,-0.00008,31.7,31.6,24,0,0,0.0,0.63,0.00,0.00
15min,AgWx,bigpiney,439,07APR2019:00:45:00,28.2,12.64,27.5,27.0,24.9,27.0,23.5,81,83,78,0.386,19.9,21.2,18.6,3.003,3.8,253,32,5.2,-0.00006,-0.00006,31.7,31.7,24,0,0,0.0,0.63,0.00,0.00
15min,AgWx,bigpiney,439,07APR2019:01:00:00,27.8,12.63,26.2,26.3,26.9,27.7,25.8,77,79,73,0.366,20.7,21.5,18.7,2.916,2.6,272,20,3.9,-0.00008,-0.00010,31.7,31.6,24,0,0,0.0,0.63,0.00,0.00
15min,AgWx,bigpiney,439,07APR2019:01:15:00,27.6,12.62,29.1,28.6,27.0,28.7,24.7,75,80,71,0.376,20.2,21.1,18.3,2.872,3.5,247,9.3,4.7,-0.00005,-0.00005,31.7,31.6,24,0,0,0.0,0.63,0.00,0.00
15min,AgWx,bigpiney,439,07APR2019:01:30:00,27.1,12.61,23.6,22.7,23.8,28.7,22.0,80,86,67,0.357,18.4,20.5,15.3,3.398,4.3,82,44,7.5,-0.00004,-0.00004,31.7,31.6,24,0,0,0.0,0.63,0.00,0.00
15min,AgWx,bigpiney,439,07APR2019:01:45:00,26.6,12.6,25.3,24.3,22.9,24.3,21.1,85,87,82,0.367,19.0,20.1,16.7,1.096,1.4,157,50,3.6,-0.00013,-0.00017,31.7,31.6,24,0,0,0.0,0.63,0.00,0.00
15min,AgWx,bigpiney,439,07APR2019:02:00:00,26.2,12.58,24.6,24.1,24.3,25.2,23.3,81,83,78,0.366,19.4,20.2,17.7,1.863,1.6,243,28,3.8,-0.00012,-0.00016,31.7,31.6,24,0,0,0.0,0.63,0.00,0.00
15min,AgWx,bigpiney,439,07APR2019:02:15:00,25.8,12.58,23.0,22.4,23.1,24.2,22.4,83,84,81,0.345,18.6,19.7,17.6,3.529,3.1,191,17,4.6,-0.00007,-0.00008,31.7,31.6,24,0,0,0.0,0.63,0.00,0.00
15min,AgWx,bigpiney,439,07APR2019:02:30:00,25.3,12.57,22.5,22.3,23.5,25.0,22.3,82,85,79,0.340,19.0,20.2,17.6,5.349,5.1,221,4.7,6.8,-0.00004,-0.00003,31.7,31.6,24,0,0,0.0,0.63,0.00,0.00
15min,AgWx,bigpiney,439,07APR2019:02:45:00,25.2,12.57,23.2,22.3,22.4,22.7,22.2,85,86,83,0.352,18.5,19.1,18.0,4.275,4.0,245,25,5.3,-0.00006,-0.00006,31.7,31.6,24,0,0,0.0,0.63,0.00,0.00
15min,AgWx,bigpiney,439,07APR2019:03:00:00,25.1,12.56,23.4,22.4,22.6,23.2,22.2,87,88,86,0.361,19.2,20.0,18.8,3.442,3.3,285,22,4.8,-0.00008,-0.00009,31.7,31.6,24,0,0,0.0,0.63,0.00,0.00
15min,AgWx,bigpiney,439,07APR2019:03:15:00,25.1,12.55,24.6,24.2,23.0,24.3,21.8,87,89,86,0.380,19.8,21.0,18.4,3.705,2.7,312,42,4.1,-0.00009,-0.00011,31.7,31.5,24,0,0,0.0,0.63,0.00,0.00
15min,AgWx,bigpiney,439,07APR2019:03:30:00,25.3,12.53,25.3,25.0,24.3,25.0,23.8,87,88,86,0.398,21.1,21.8,20.3,0,2.3,17,12,4.1,-0.00011,-0.00013,31.7,31.6,24,0,0,0.0,0.63,0.00,0.00
15min,AgWx,bigpiney,439,07APR2019:03:45:00,25.9,12.53,25.6,25.0,24.9,25.1,24.6,87,88,86,0.398,21.5,21.7,21.3,1.973,0.8,260,54,2.5,-0.00017,-0.00024,31.7,31.6,24,0,0,0.0,0.63,0.00,0.00
15min,AgWx,bigpiney,439,07APR2019:04:00:00,26.2,12.52,23.3,23.0,23.5,25.0,22.7,87,88,86,0.370,20.3,21.7,19.5,0.68,2.7,215,45,5.3,-0.00009,-0.00011,31.7,31.6,24,0,0,0.0,0.63,0.00,0.00
15min,AgWx,bigpiney,439,07APR2019:04:15:00,26.2,12.51,21.3,22.2,22.6,23.3,21.9,87,88,86,0.354,19.3,20.3,18.4,2.411,2.3,229,16,3.5,-0.00010,-0.00013,31.7,31.6,24,0,0,0.0,0.63,0.00,0.00
15min,AgWx,bigpiney,439,07APR2019:04:30:00,26.0,12.49,24.3,24.9,23.4,25.4,21.4,87,88,82,0.375,20.0,21.5,17.7,1.293,1.9,232,13,2.9,-0.00011,-0.00014,31.7,31.5,24,0,0,0.0,0.63,0.00,0.00
15min,AgWx,bigpiney,439,07APR2019:04:45:00,25.8,12.47,26.1,25.4,25.4,25.9,24.6,83,84,82,0.393,21.1,21.6,19.9,0,0.9,292,17,2.9,-0.00016,-0.00022,31.7,31.6,25,0,0,0.0,0.63,0.00,0.00
15min,AgWx,bigpiney,439,07APR2019:05:00:00,25.6,12.46,25.3,24.6,24.7,25.5,24.2,85,87,83,0.392,20.9,21.5,20.1,2.236,0.3,269,4.5,2.3,-0.00020,-0.00030,31.7,31.6,24,0,0,0.0,0.63,0.00,0.00
15min,AgWx,bigpiney,439,07APR2019:05:15:00,25.3,12.46,25.7,25.0,24.3,25.1,22.0,87,89,82,0.403,20.8,21.9,17.5,1.403,1.6,259,35,2.7,-0.00013,-0.00017,31.7,31.6,25,0,0,0.0,0.63,0.00,0.00
15min,AgWx,bigpiney,439,07APR2019:05:30:00,25.0,12.44,22.8,23.9,24.1,25.0,22.5,86,89,83,0.375,20.7,21.9,18.1,3.771,2.6,235,17,4.3,-0.00010,-0.00012,31.7,31.6,25,0,0,0.0,0.63,0.00,0.00
15min,AgWx,bigpiney,439,07APR2019:05:45:00,24.6,12.44,23.9,22.7,23.7,25.0,22.1,85,87,80,0.355,19.8,21.5,17.0,0.833,2.1,242,17,3.8,-0.00011,-0.00013,31.7,31.7,25,1,0,0.0,0.63,0.00,0.00
15min,AgWx,bigpiney,439,07APR2019:06:00:00,24.1,12.41,22.6,22.7,24.5,25.3,22.7,85,88,81,0.339,20.6,21.8,17.9,0.46,0.7,264,32,2.9,-0.00016,-0.00023,31.7,31.6,25,3,0,0.0,0.63,0.00,0.00
15min,AgWx,bigpiney,439,07APR2019:06:15:00,23.7,12.43,23.4,23.0,23.1,24.0,22.5,86,87,81,0.366,19.4,20.4,17.8,0.789,0.4,82,61,2.4,-0.00007,-0.00007,31.7,31.6,25,9,0,0.0,0.63,0.00,0.00
15min,AgWx,bigpiney,439,07APR2019:06:30:00,23.5,12.47,21.8,22.2,23.1,23.6,22.2,88,89,87,0.353,20.1,20.8,18.8,2.959,0.9,291,49,3.0,-0.00014,-0.00014,31.7,31.6,25,54,0,0.0,0.63,0.00,0.00
15min,AgWx,bigpiney,439,07APR2019:06:45:00,24.0,12.51,25.8,24.8,23.3,24.8,22.1,89,90,87,0.411,20.6,22.4,18.7,3.179,1.6,232,40,3.3,0.00004,0.00006,31.7,31.6,25,102,0,0.0,0.63,0.00,0.00
15min,AgWx,bigpiney,439,07APR2019:07:00:00,25.3,12.71,28.1,27.3,25.9,27.3,24.9,89,91,89,0.447,23.3,24.4,22.5,3.573,3.5,242,37,6.3,0.00024,0.00029,31.7,31.6,25,154,0,0.0,0.63,0.00,0.00
15min,AgWx,bigpiney,439,07APR2019:07:15:00,26.9,12.96,30.2,29.5,28.6,29.5,27.3,86,89,82,0.455,24.8,25.1,24.4,2.433,3.1,315,17,5.0,0.00042,0.00049,31.7,31.6,25,194,0,0.0,0.63,0.00,0.00
15min,AgWx,bigpiney,439,07APR2019:07:30:00,28.3,13.42,31.4,31.2,30.0,31.2,29.5,83,84,82,0.490,25.3,26.6,24.7,0,1.8,15,55,5.2,0.00063,0.00071,31.7,31.7,25,244,0,0.0,0.63,0.00,0.00
15min,AgWx,bigpiney,439,07APR2019:07:45:00,30.0,13.81,33.4,32.8,31.9,32.8,31.0,81,83,79,0.503,26.8,27.8,26.2,0,1.3,3.6,32,3.1,0.00090,0.00098,31.7,31.6,25,298,0,0.0,0.63,0.00,0.00
15min,AgWx,bigpiney,439,07APR2019:08:00:00,32.2,14.76,36.6,35.6,34.1,35.6,32.9,79,81,78,0.549,28.4,30.0,27.3,1.6,1.3,7.8,54,3.3,0.00117,0.00128,31.7,31.6,25,351,0,0.0,0.63,0.00,0.00
15min,AgWx,bigpiney,439,07APR2019:08:15:00,35.1,14.74,40.8,39.9,38.0,39.9,35.7,71,79,67,0.582,29.6,30.8,28.4,4.121,5.1,121,36,8.4,0.00166,0.00193,31.7,31.6,25,446,0,0.0,0.63,0.00,0.00
15min,AgWx,bigpiney,439,07APR2019:08:30:00,38.1,14.26,38.9,39.1,39.5,40.1,38.7,66,70,63,0.526,29.1,31.0,27.8,9.56,8.2,140,14,13.1,0.00186,0.00225,31.7,31.6,25,478,0,0.0,0.63,0.00,0.00